Regional Weather Roundup
Issued by NWS Upton, NY

Current Version | Previous Version | Graphics & Text | Print | Product List | Glossary On
Versions: 1 2 3 4 5 6 7 8 9 10 11 12 13 14 15 16 17 18 19 20 21 22 23 24 25 26 27 28 29 30 31 32 33 34 35 36 37 38 39 40 41 42 43 44 45 46 47 48 49 50
712 ASUS41 KOKX 190708 RWROKX REGIONAL WEATHER ROUNDUP NATIONAL WEATHER SERVICE NEW YORK NY 200 AM EST THU JAN 19 2017 NOTE: "FAIR" INDICATES FEW OR NO CLOUDS BELOW 12,000 FEET WITH NO SIGNIFICANT WEATHER AND/OR OBSTRUCTIONS TO VISIBILITY. NYZ071-072-176-178-NJZ106-104-190800- NEW YORK CITY METRO AREA CITY SKY/WX TMP DP RH WIND PRES REMARKS Central Park CLOUDY 40 35 83 CALM 30.05R Wall St Helipt CLOUDY 41 37 86 W6 30.04S Bronx Bot Gard NOT AVBL LaGuardia APRT CLOUDY 42 36 79 CALM 30.03R Kennedy INTL CLOUDY 41 35 79 N3 30.04R Breezy Point N/A 39 N/A N/A W5 N/A Newark/Liberty CLOUDY 39 36 89 W3 30.03R Teterboro CLOUDY 38 36 92 CALM 30.02S $$ NYZ177-179-078>081-190800- LONG ISLAND NEW YORK CITY SKY/WX TMP DP RH WIND PRES REMARKS Jones Beach N/A 39 N/A N/A NW7 N/A WCI 34 Matinecock PT NOT AVBL Farmingdale MOCLDY 38 35 89 NW3 30.03R MacArthur/ISP CLOUDY 38 37 97 N6 30.02R WCI 33 Shirley CLOUDY 37 36 96 N6 30.03R WCI 32 Westhampton CLOUDY 37 35 92 NW3 30.03R Southampton NOT AVBL Bridgehampton NOT AVBL East Hampton CLOUDY 37 36 96 CALM 30.01R Montauk N/A 38 37 97 N7 30.02R WCI 33 $$ NYZ052-065-067-190800- HUDSON VALLEY CITY SKY/WX TMP DP RH WIND PRES REMARKS White Plains MOCLDY 35 35 100 CALM 30.00R FOG Newburgh MOCLDY 34 34 100 W6 30.02R FOG WCI 29 Montgomery FOG 33 32 96 SE3 30.00R VSB 1/4 Poughkeepsie FOG 34 34 100 CALM 30.02R VSB 1/4 Albany CLOUDY 35 33 92 S3 30.01S FOG $$ NJZ001-105-106-008-010-013-015-019>022-104-190800- NEW JERSEY CITY SKY/WX TMP DP RH WIND PRES REMARKS Newark/Liberty CLOUDY 39 36 89 W3 30.03R Teterboro CLOUDY 38 36 92 CALM 30.02S Caldwell CLOUDY 35 34 96 CALM 30.03S FOG Somerville CLOUDY 38 37 97 CALM 30.02R Linden N/A 38 35 91 CALM 30.04R Sussex CLOUDY 35 35 100 CALM 30.02R FOG Andover N/A 34 34 100 CALM 30.01S Trenton CLOUDY 42 38 85 NW3 30.03R Millville CLOUDY 35 35 100 CALM 30.04S Atlantic City CLOUDY 33 31 92 CALM 30.04R Wrightstown CLOUDY 40 37 92 NW3 30.01R Toms River CLOUDY 36 35 96 CALM 30.04S FOG Belmar CLOUDY 38 37 97 W3 30.04R $$ PAZ047>061-062-071-190800- EASTERN PENNSYLVANIA CITY SKY/WX TMP DP RH WIND PRES REMARKS Philadelphia CLOUDY 45 38 76 NW3 30.05S Allentown CLOUDY 42 36 79 W5 30.02F Scranton CLOUDY 38 38 100 SW3 30.01R $$ CTZ002-004>006-009-010-012-RIZ004-006-007-MAZ004-011-015-190800- SOUTHERN NEW ENGLAND IN CT CITY SKY/WX TMP DP RH WIND PRES REMARKS Bradley INTL CLOUDY 34 33 96 CALM 30.02R Hartford CLOUDY 35 33 92 N3 30.03R Danbury CLOUDY 33 32 96 CALM 30.02R FOG Wtrbury/Oxford CLOUDY 34 28 80 CALM 30.01R Bridgeport CLOUDY 39 34 82 CALM 30.02R Meriden CLOUDY 36 33 89 N3 30.03R New Haven CLOUDY 37 34 89 N6 30.02R WCI 32 Chester CLOUDY 36 34 93 NW5 30.00R FOG WCI 32 Groton CLOUDY 37 34 89 N7 30.01R WCI 32 Wilimantic CLOUDY 37 35 92 CALM 30.02R IN RI CITY SKY/WX TMP DP RH WIND PRES REMARKS Providence CLOUDY 35 33 92 N5 30.01S WCI 31 Block Island NOT AVBL Westerly CLOUDY 37 33 85 N3 30.01S IN MA CITY SKY/WX TMP DP RH WIND PRES REMARKS Boston CLOUDY 32 30 92 NW7 30.02S WCI 26 Worcester FOG 30 28 92 NW3 29.98R VSB 3/4 Westfield CLOUDY 33 33 100 CALM 30.01R Provincetown CLOUDY 40 35 83 N3 29.99S Nantucket CLOUDY 41 38 89 N6 29.97R $$ ANZ330-335-338-340-345-350-353-355-190800- COASTAL MARINE OBSERVATIONS STATION/POSITION TIME SKY/WX TEMP WIND PRES VSBY WAVE AIR SEA DIR/SP/G HT/PER (UTC) (F) (DEG/KT/KT) (MB) (MI) (FT/S) NY HARB ENTRANCE 0550 41 44 360/ 6/ 8 1016.2 4/ 8 20 S FIRE ISLAND 0650 40 45 10/ 8/ 10 1016.2 6/ 8 GREAT SOUTH BAY NOT AVBL 23 SSW MONTAUK P 0550 40 47 350/ 12/ 16 1015.5 7/ 9 15 E BARNEGAT LI 0630 48 N/A 5/ 7 HUDSON CANYON 0550 46 51 1014.5 7/ 8 KINGS POINT 0642 38 38 1016.8 EXECUTION ROCKS 0645 39 320/ 2/ 4 N/A CENTRAL LI SOUND 0630 38 360/ 6/ 8 N/A 1/ 3 EASTERN LI SOUND NOT AVBL ROBBINS REEF 0648 40 330/ 3/ 4 1017.2 $$ >>>>>>>>>>>>>>>>>>>>>>>>>>>> KEY <<<<<<<<<<<<<<<<<<<<<<<<<<< > < > SKY/WX - Sky Condition/Present Weather < > TMP - Temperature in Fahrenheit < > DP - Dew Point in Fahrenheit < > RH - Relative Humidity in Percent < > WIND - Direction (from) and Speed in MPH < > PRES - Mean Sea Level Pressure (inches of Hg) < > WCI - Wind Chill Index < > VSB - VISIBILITY IN MILES < > HX - HEAT INDEX < > TC - TEMPERATURE IN CELSIUS < > VRB - VARIABLE WIND DIRECTION < > < >>>>>>>>>>>>>>>>>>>>>>>>>>>> KEY <<<<<<<<<<<<<<<<<<<<<<<<<<<

USA.gov is the U.S. government's official web portal to all federal, state and local government web resources and services.